Regional Weather Roundup
Issued by NWS

Home | Current Version | Previous Version | Text Only | Print | Product List | Glossary Off
Versions: 1 2 3 4 5 6 7 8 9 10 11 12 13 14 15 16 17 18 19 20 21 22 23 24 25 26 27 28 29 30 31 32 33 34 35 36 37 38 39 40 41 42 43 44 45 46 47 48 49 50

764
ASUS43 KLSX 310807
RWRMO

WEATHER SUMMARY FOR MISSOURI
NATIONAL WEATHER SERVICE SPRINGFIELD MO
300 AM CDT SUN JUL 31 2016

NOTE: "FAIR" INDICATES FEW OR NO CLOUDS BELOW 12,000 FEET WITH NO
       SIGNIFICANT WEATHER AND/OR OBSTRUCTIONS TO VISIBILITY.
       CURRENT SKY AND/OR WEATHER CONDITIONS ARE NOT AVAILABLE FOR
       CHILLICOTHE AND FARMINGTON.

MOZ001>031-035>038-043-044-053-054-310900-
...NORTHERN AND WESTERN MISSOURI...

CITY           SKY/WX    TMP DP  RH WIND       PRES   REMARKS
KANSAS CTY INT CLEAR     72  65  78 SE9       29.96F
KANSAS C DTWN  CLEAR     75  66  73 VRB5      29.95F
LEE`S SUMMIT   CLEAR     73  66  78 SE8       29.97F
ST JOSEPH      CLEAR     72  66  81 SE6       29.96S
CHILLICOTHE      N/A     68  65  90 CALM      29.99F
KIRKSVILLE     CLEAR     63  61  93 CALM      30.00F

$$
MOZ066>068-077>081-088>096-101>105-310900-
...SOUTHWEST MISSOURI...

CITY           SKY/WX    TMP DP  RH WIND       PRES   REMARKS
SPRINGFIELD    CLEAR     72  69  90 SE5       29.98F
JOPLIN         CLOUDY    73  70  90 SE3       29.96F
BRANSON        CLOUDY    72  68  88 CALM      30.01S

$$
MOZ032>034-039>042-045>050-055>058-069>072-310900-
...CENTRAL MISSOURI...

CITY           SKY/WX    TMP DP  RH WIND       PRES   REMARKS
COLUMBIA       CLEAR     68  65  90 E5        29.99F
JEFFERSON CITY CLEAR     67  65  93 CALM      29.98F
ROLLA          PTCLDY    68  65  90 E3        29.99F
SEDALIA        CLEAR     70  65  84 SE3       29.99F
WHITEMAN AFB   CLEAR     69  68  98 SE6       29.96F
OSAGE BEACH    CLEAR     68  67  96 CALM      29.99F

$$
MOZ051-052-059>065-310900-
...EAST CENTRAL MISSOURI...

CITY           SKY/WX    TMP DP  RH WIND       PRES   REMARKS
ST LOUIS INTL  MOCLDY    75  67  76 CALM      29.99F
SPIRIT OF STL  PTCLDY    68  67  96 W3        29.98S
ST CHARLES     CLEAR     69  68  96 CALM      29.98F

$$
MOZ072>076-082>087-097>100-106>115-310900-
...SOUTH CENTRAL AND SOUTHEAST MISSOURI...

CITY           SKY/WX    TMP DP  RH WIND       PRES   REMARKS
CAPE GIRARDEAU CLEAR     72  70  93 CALM      29.97S
FARMINGTON     CLEAR     68  67  96 CALM      30.01R
POPLAR BLUFF   PTCLDY    75  73  93 CALM      29.97S FOG
WEST PLAINS    CLEAR     70  67  90 CALM      30.03S

$$



USA.gov is the U.S. government's official web portal to all federal, state and local government web resources and services.